TimeEST,TemperatureF,Dew PointF,Humidity,Sea Level PressureIn,VisibilityMPH,Wind Direction,Wind SpeedMPH,Gust SpeedMPH,PrecipitationIn,Events,Conditions,WindDirDegrees,DateUTC
12:55 AM,50.7,48.7,93,30.45,10.0,NNW,5.8,-,N/A,,Mostly Cloudy,340,2013-01-10 05:55:00
1:55 AM,49.6,47.3,92,30.44,10.0,NNW,3.5,-,N/A,,Partly Cloudy,340,2013-01-10 06:55:00
2:55 AM,48.4,46.6,93,30.44,10.0,NNW,1.2,-,N/A,,Partly Cloudy,330,2013-01-10 07:55:00
3:55 AM,47.3,46.2,96,30.44,10.0,West,2.3,-,N/A,,Partly Cloudy,270,2013-01-10 08:55:00
4:55 AM,46.2,45.3,97,30.44,9.0,Calm,Calm,-,N/A,,Clear,0,2013-01-10 09:55:00
5:55 AM,45.1,44.4,97,30.46,6.0,NNW,2.3,-,N/A,,Clear,330,2013-01-10 10:55:00
6:43 AM,44.6,42.8,93,30.47,2.5,NNW,2.3,-,N/A,,Clear,330,2013-01-10 11:43:00
6:51 AM,44.6,44.6,100,30.48,3.0,North,2.3,-,N/A,,Clear,350,2013-01-10 11:51:00
6:55 AM,44.2,43.5,97,30.48,4.0,NNW,3.5,-,N/A,,Clear,330,2013-01-10 11:55:00
7:55 AM,43.3,43.2,99,30.51,9.0,NW,1.2,-,N/A,,Clear,320,2013-01-10 12:55:00
8:55 AM,53.2,50.0,89,30.52,10.0,NNE,3.5,-,N/A,,Clear,20,2013-01-10 13:55:00
9:55 AM,61.7,45.9,56,30.52,10.0,NE,11.5,20.7,N/A,,Clear,40,2013-01-10 14:55:00
10:55 AM,63.7,42.3,46,30.51,10.0,ENE,9.2,-,N/A,,Clear,60,2013-01-10 15:55:00
11:55 AM,65.3,42.1,43,30.48,10.0,ENE,5.8,-,N/A,,Clear,70,2013-01-10 16:55:00
12:55 PM,66.4,39.0,37,30.45,10.0,East,6.9,-,N/A,,Clear,80,2013-01-10 17:55:00
1:55 PM,67.5,40.6,38,30.44,10.0,East,8.1,-,N/A,,Clear,80,2013-01-10 18:55:00
2:55 PM,67.5,41.0,38,30.44,10.0,NE,5.8,-,N/A,,Clear,40,2013-01-10 19:55:00
3:55 PM,66.6,42.6,42,30.44,10.0,East,5.8,-,N/A,,Clear,80,2013-01-10 20:55:00
4:55 PM,64.0,45.0,50,30.45,10.0,East,5.8,-,N/A,,Clear,90,2013-01-10 21:55:00
5:55 PM,60.3,46.4,60,30.45,10.0,ENE,5.8,-,N/A,,Clear,60,2013-01-10 22:55:00
6:55 PM,57.6,46.8,67,30.46,10.0,ENE,3.5,-,N/A,,Clear,60,2013-01-10 23:55:00
7:55 PM,52.9,46.6,79,30.46,10.0,ENE,4.6,-,N/A,,Clear,60,2013-01-11 00:55:00
8:55 PM,53.1,46.8,79,30.44,10.0,ENE,3.5,-,N/A,,Partly Cloudy,60,2013-01-11 01:55:00
9:55 PM,55.8,46.2,70,30.43,10.0,ENE,5.8,-,N/A,,Overcast,70,2013-01-11 02:55:00
10:55 PM,56.1,44.1,64,30.42,10.0,East,6.9,-,N/A,,Mostly Cloudy,100,2013-01-11 03:55:00
11:39 PM,55.4,42.8,63,30.43,10.0,ESE,5.8,-,N/A,Rain,Light Rain,110,2013-01-11 04:39:00
11:55 PM,54.3,43.9,68,30.43,10.0,ESE,6.9,-,N/A,Rain,Light Rain,120,2013-01-11 04:55:00